Wetterstation Vettweiß-Soller: Standort 50° 43' 54" Nord - 6° 33' 24" Ost
Wetterdaten: aktuell Mittwoch, 06.05.2026 11:30
Datum Zeit Temp. A. Temp. A. min Temp. A. max Feuchte A. Luftdruck Regen Wind Richtung Richtung Sonnenschein Zeit Regen ET UV Solar Taupunkt Windchill Windböen
06.05.2026 11:30 10,0 °C 9,9 °C 10,1 °C 93 % 1007,5 hPa 0,2 l/m² 5,3 km/h (1 Bft) NW 321 ° 0 min 15 min 0,000 mm 0,0 UV-I 84 W/m² 8,9 °C 9,7 °C 14,5 km/h (3 Bft)
06.05.2026 11:15 9,9 °C 9,8 °C 10,1 °C 93 % 1007,2 hPa 0,2 l/m² 6,5 km/h (2 Bft) NW 325 ° 0 min 15 min 0,000 mm 0,0 UV-I 88 W/m² 8,8 °C 9,2 °C 12,9 km/h (3 Bft)
06.05.2026 11:00 9,8 °C 9,8 °C 9,8 °C 94 % 1007,1 hPa 0,0 l/m² 7,8 km/h (2 Bft) NW 323 ° 0 min 0 min 0,026 mm 0,7 UV-I 146 W/m² 8,9 °C 8,8 °C 17,7 km/h (3 Bft)
06.05.2026 10:45 9,8 °C 9,8 °C 10,0 °C 94 % 1007,0 hPa 0,2 l/m² 6,6 km/h (2 Bft) NW 321 ° 0 min 15 min 0,000 mm 0,0 UV-I 81 W/m² 8,9 °C 9,1 °C 14,5 km/h (3 Bft)
06.05.2026 10:30 10,0 °C 9,8 °C 10,0 °C 94 % 1007,0 hPa 0,0 l/m² 3,6 km/h (1 Bft) NW 321 ° 0 min 0 min 0,000 mm 0,0 UV-I 62 W/m² 9,1 °C 10,0 °C 9,7 km/h (2 Bft)
06.05.2026 10:15 9,8 °C 9,7 °C 9,8 °C 94 % 1006,9 hPa 0,0 l/m² 5,3 km/h (1 Bft) NW 321 ° 0 min 0 min 0,000 mm 0,0 UV-I 54 W/m² 8,9 °C 9,4 °C 14,5 km/h (3 Bft)
06.05.2026 10:00 9,7 °C 9,6 °C 9,7 °C 94 % 1006,8 hPa 0,0 l/m² 6,5 km/h (2 Bft) NW 321 ° 0 min 0 min 0,025 mm 0,0 UV-I 44 W/m² 8,8 °C 9,0 °C 14,5 km/h (3 Bft)
06.05.2026 09:45 9,7 °C 9,6 °C 9,7 °C 94 % 1006,8 hPa 0,0 l/m² 3,7 km/h (1 Bft) NW 321 ° 0 min 0 min 0,000 mm 0,0 UV-I 42 W/m² 8,8 °C 9,7 °C 12,9 km/h (3 Bft)
06.05.2026 09:30 9,7 °C 9,4 °C 9,7 °C 94 % 1006,7 hPa 0,0 l/m² 3,3 km/h (1 Bft) NW 321 ° 0 min 0 min 0,000 mm 0,0 UV-I 35 W/m² 8,8 °C 9,7 °C 12,9 km/h (3 Bft)
06.05.2026 09:15 9,5 °C 9,4 °C 9,6 °C 94 % 1006,6 hPa 0,0 l/m² 4,0 km/h (1 Bft) NW 321 ° 0 min 0 min 0,000 mm 0,0 UV-I 39 W/m² 8,6 °C 9,5 °C 14,5 km/h (3 Bft)
06.05.2026 09:00 9,4 °C 9,3 °C 9,4 °C 94 % 1006,5 hPa 0,0 l/m² 3,4 km/h (1 Bft) NW 321 ° 0 min 0 min 0,026 mm 0,0 UV-I 37 W/m² 8,5 °C 9,4 °C 8,0 km/h (2 Bft)
06.05.2026 08:45 9,3 °C 9,3 °C 9,4 °C 94 % 1006,5 hPa 0,0 l/m² 4,5 km/h (1 Bft) NW 321 ° 0 min 0 min 0,000 mm 0,0 UV-I 40 W/m² 8,4 °C 9,3 °C 16,1 km/h (3 Bft)
06.05.2026 08:30 9,3 °C 9,2 °C 9,3 °C 94 % 1006,5 hPa 0,0 l/m² 4,4 km/h (1 Bft) NW 321 ° 0 min 0 min 0,000 mm 0,0 UV-I 46 W/m² 8,4 °C 9,3 °C 12,9 km/h (3 Bft)
06.05.2026 08:15 9,2 °C 9,1 °C 9,2 °C 94 % 1006,5 hPa 0,0 l/m² 4,7 km/h (1 Bft) NW 321 ° 0 min 0 min 0,000 mm 0,0 UV-I 37 W/m² 8,3 °C 8,9 °C 9,7 km/h (2 Bft)
06.05.2026 08:00 9,2 °C 9,1 °C 9,2 °C 94 % 1006,3 hPa 0,2 l/m² 3,8 km/h (1 Bft) NW 325 ° 0 min 15 min 0,025 mm 0,0 UV-I 33 W/m² 8,3 °C 9,2 °C 14,5 km/h (3 Bft)
06.05.2026 07:45 9,2 °C 9,1 °C 9,2 °C 94 % 1006,4 hPa 0,0 l/m² 4,0 km/h (1 Bft) NW 326 ° 0 min 0 min 0,000 mm 0,0 UV-I 28 W/m² 8,3 °C 9,2 °C 9,7 km/h (2 Bft)
06.05.2026 07:30 9,1 °C 9,1 °C 9,2 °C 94 % 1006,4 hPa 0,0 l/m² 4,0 km/h (1 Bft) N-NW 327 ° 0 min 0 min 0,000 mm 0,0 UV-I 23 W/m² 8,2 °C 9,1 °C 12,9 km/h (3 Bft)
06.05.2026 07:15 9,1 °C 9,1 °C 9,2 °C 94 % 1006,4 hPa 0,2 l/m² 3,9 km/h (1 Bft) N-NW 327 ° 0 min 15 min 0,000 mm 0,0 UV-I 18 W/m² 8,2 °C 9,1 °C 12,9 km/h (3 Bft)
06.05.2026 07:00 9,2 °C 9,2 °C 9,3 °C 94 % 1006,4 hPa 0,2 l/m² 4,3 km/h (1 Bft) N-NW 329 ° 0 min 15 min 0,000 mm 0,0 UV-I 12 W/m² 8,3 °C 9,2 °C 12,9 km/h (3 Bft)
06.05.2026 06:45 9,3 °C 9,3 °C 9,4 °C 94 % 1006,4 hPa 0,0 l/m² 4,2 km/h (1 Bft) N-NW 331 ° 0 min 0 min 0,000 mm 0,0 UV-I 7 W/m² 8,4 °C 9,3 °C 12,9 km/h (3 Bft)
06.05.2026 06:30 9,3 °C 9,3 °C 9,4 °C 94 % 1006,4 hPa 0,2 l/m² 4,9 km/h (1 Bft) N-NW 331 ° 0 min 15 min 0,000 mm 0,0 UV-I 0 W/m² 8,4 °C 9,0 °C 12,9 km/h (3 Bft)
06.05.2026 06:15 9,4 °C 9,4 °C 9,6 °C 94 % 1006,4 hPa 0,2 l/m² 3,4 km/h (1 Bft) N-NW 333 ° 0 min 15 min 0,000 mm 0,0 UV-I 0 W/m² 8,5 °C 9,4 °C 12,9 km/h (3 Bft)
06.05.2026 06:00 9,5 °C 9,5 °C 9,7 °C 94 % 1006,5 hPa 0,0 l/m² 4,6 km/h (1 Bft) N-NW 333 ° 0 min 0 min 0,000 mm 0,0 UV-I 0 W/m² 8,6 °C 9,3 °C 14,5 km/h (3 Bft)
06.05.2026 05:45 9,7 °C 9,6 °C 9,7 °C 94 % 1006,5 hPa 0,0 l/m² 3,9 km/h (1 Bft) N-NW 336 ° 0 min 0 min 0,000 mm 0,0 UV-I 0 W/m² 8,8 °C 9,7 °C 8,0 km/h (2 Bft)
06.05.2026 05:30 9,7 °C 9,7 °C 9,8 °C 94 % 1006,5 hPa 0,0 l/m² 4,4 km/h (1 Bft) N-NW 336 ° 0 min 0 min 0,000 mm 0,0 UV-I 0 W/m² 8,8 °C 9,7 °C 8,0 km/h (2 Bft)
06.05.2026 05:15 9,8 °C 9,8 °C 9,8 °C 94 % 1006,5 hPa 0,2 l/m² 3,6 km/h (1 Bft) N-NW 336 ° 0 min 15 min 0,000 mm 0,0 UV-I 0 W/m² 8,9 °C 9,8 °C 8,0 km/h (2 Bft)
06.05.2026 05:00 9,8 °C 9,8 °C 9,8 °C 94 % 1006,6 hPa 0,2 l/m² 4,2 km/h (1 Bft) N-NW 336 ° 0 min 15 min 0,000 mm 0,0 UV-I 0 W/m² 8,9 °C 9,8 °C 9,7 km/h (2 Bft)
06.05.2026 04:45 9,8 °C 9,8 °C 10,1 °C 94 % 1006,7 hPa 0,0 l/m² 4,6 km/h (1 Bft) N-NW 336 ° 0 min 0 min 0,000 mm 0,0 UV-I 0 W/m² 8,9 °C 9,7 °C 9,7 km/h (2 Bft)
06.05.2026 04:30 10,0 °C 10,0 °C 10,1 °C 93 % 1006,8 hPa 0,2 l/m² 3,2 km/h (1 Bft) N-NW 336 ° 0 min 15 min 0,000 mm 0,0 UV-I 0 W/m² 8,9 °C 10,0 °C 8,0 km/h (2 Bft)
06.05.2026 04:15 10,1 °C 10,0 °C 10,1 °C 94 % 1006,9 hPa 0,4 l/m² 3,1 km/h (1 Bft) N-NW 336 ° 0 min 15 min 0,000 mm 0,0 UV-I 0 W/m² 9,2 °C 10,1 °C 8,0 km/h (2 Bft)
06.05.2026 04:00 10,1 °C 10,0 °C 10,1 °C 94 % 1007,0 hPa 0,4 l/m² 2,6 km/h (1 Bft) N-NW 336 ° 0 min 15 min 0,000 mm 0,0 UV-I 0 W/m² 9,2 °C 10,1 °C 6,4 km/h (2 Bft)
06.05.2026 03:45 10,0 °C 10,0 °C 10,1 °C 93 % 1007,1 hPa 0,0 l/m² 2,8 km/h (1 Bft) N-NW 336 ° 0 min 0 min 0,000 mm 0,0 UV-I 0 W/m² 8,9 °C 10,0 °C 6,4 km/h (2 Bft)
06.05.2026 03:30 10,0 °C 10,0 °C 10,1 °C 93 % 1007,2 hPa 0,2 l/m² 3,0 km/h (1 Bft) N-NW 336 ° 0 min 15 min 0,000 mm 0,0 UV-I 0 W/m² 8,9 °C 10,0 °C 8,0 km/h (2 Bft)
06.05.2026 03:15 10,1 °C 10,1 °C 10,1 °C 93 % 1007,2 hPa 0,0 l/m² 3,1 km/h (1 Bft) N-NW 336 ° 0 min 0 min 0,000 mm 0,0 UV-I 0 W/m² 9,0 °C 10,1 °C 8,0 km/h (2 Bft)
06.05.2026 03:00 10,1 °C 10,1 °C 10,2 °C 94 % 1007,2 hPa 0,0 l/m² 2,5 km/h (1 Bft) N-NW 336 ° 0 min 0 min 0,000 mm 0,0 UV-I 0 W/m² 9,2 °C 10,1 °C 9,7 km/h (2 Bft)
06.05.2026 02:45 10,1 °C 10,1 °C 10,2 °C 94 % 1007,2 hPa 0,0 l/m² 3,5 km/h (1 Bft) N-NW 336 ° 0 min 0 min 0,000 mm 0,0 UV-I 0 W/m² 9,2 °C 10,1 °C 9,7 km/h (2 Bft)
06.05.2026 02:30 10,2 °C 10,1 °C 10,2 °C 94 % 1007,4 hPa 0,2 l/m² 2,6 km/h (1 Bft) N-NW 336 ° 0 min 15 min 0,000 mm 0,0 UV-I 0 W/m² 9,3 °C 10,2 °C 8,0 km/h (2 Bft)
06.05.2026 02:15 10,2 °C 10,2 °C 10,3 °C 94 % 1007,5 hPa 0,0 l/m² 2,8 km/h (1 Bft) N-NW 336 ° 0 min 0 min 0,000 mm 0,0 UV-I 0 W/m² 9,3 °C 10,2 °C 8,0 km/h (2 Bft)
06.05.2026 02:00 10,2 °C 10,2 °C 10,3 °C 93 % 1007,7 hPa 0,2 l/m² 3,5 km/h (1 Bft) N-NW 336 ° 0 min 15 min 0,000 mm 0,0 UV-I 0 W/m² 9,1 °C 10,2 °C 6,4 km/h (2 Bft)
06.05.2026 01:45 10,3 °C 10,3 °C 10,4 °C 93 % 1007,8 hPa 0,0 l/m² 1,0 km/h (0 Bft) N-NW 336 ° 0 min 0 min 0,000 mm 0,0 UV-I 0 W/m² 9,2 °C 10,3 °C 4,8 km/h (1 Bft)
06.05.2026 01:30 10,3 °C 10,3 °C 10,4 °C 93 % 1007,9 hPa 0,2 l/m² 2,9 km/h (1 Bft) N-NW 336 ° 0 min 15 min 0,000 mm 0,0 UV-I 0 W/m² 9,2 °C 10,3 °C 8,0 km/h (2 Bft)
06.05.2026 01:15 10,3 °C 10,3 °C 10,4 °C 93 % 1007,9 hPa 0,2 l/m² 4,0 km/h (1 Bft) N-NW 336 ° 0 min 15 min 0,000 mm 0,0 UV-I 0 W/m² 9,2 °C 10,3 °C 8,0 km/h (2 Bft)
06.05.2026 01:00 10,3 °C 10,3 °C 10,4 °C 93 % 1008,0 hPa 0,2 l/m² 4,1 km/h (1 Bft) N-NW 336 ° 0 min 15 min 0,000 mm 0,0 UV-I 0 W/m² 9,2 °C 10,3 °C 12,9 km/h (3 Bft)
06.05.2026 00:45 10,4 °C 10,4 °C 10,4 °C 93 % 1008,1 hPa 0,4 l/m² 2,9 km/h (1 Bft) N-NW 336 ° 0 min 15 min 0,000 mm 0,0 UV-I 0 W/m² 9,3 °C 10,4 °C 8,0 km/h (2 Bft)
06.05.2026 00:30 10,4 °C 10,3 °C 10,4 °C 93 % 1008,2 hPa 0,2 l/m² 3,3 km/h (1 Bft) N-NW 336 ° 0 min 15 min 0,000 mm 0,0 UV-I 0 W/m² 9,3 °C 10,4 °C 8,0 km/h (2 Bft)
06.05.2026 00:15 10,3 °C 10,3 °C 10,4 °C 93 % 1008,2 hPa 0,2 l/m² 2,6 km/h (1 Bft) N-NW 336 ° 0 min 15 min 0,000 mm 0,0 UV-I 0 W/m² 9,2 °C 10,3 °C 8,0 km/h (2 Bft)
06.05.2026 00:00 10,4 °C 10,4 °C 10,4 °C 93 % 1008,2 hPa 0,2 l/m² 2,8 km/h (1 Bft) N-NW 336 ° 0 min 15 min 0,000 mm 0,0 UV-I 0 W/m² 9,3 °C 10,4 °C 8,0 km/h (2 Bft)
05.05.2026 23:45 10,4 °C 10,4 °C 10,5 °C 93 % 1008,3 hPa 0,4 l/m² 2,6 km/h (1 Bft) N-NW 336 ° 0 min 15 min 0,000 mm 0,0 UV-I 0 W/m² 9,3 °C 10,4 °C 6,4 km/h (2 Bft)
05.05.2026 23:30 10,5 °C 10,4 °C 10,5 °C 93 % 1008,4 hPa 0,2 l/m² 3,0 km/h (1 Bft) N-NW 336 ° 0 min 15 min 0,000 mm 0,0 UV-I 0 W/m² 9,4 °C 10,5 °C 8,0 km/h (2 Bft)
05.05.2026 23:15 10,4 °C 10,4 °C 10,6 °C 93 % 1008,4 hPa 0,4 l/m² 4,5 km/h (1 Bft) N-NW 336 ° 0 min 15 min 0,000 mm 0,0 UV-I 0 W/m² 9,3 °C 10,4 °C 8,0 km/h (2 Bft)
05.05.2026 23:00 10,6 °C 10,6 °C 10,7 °C 93 % 1008,6 hPa 0,2 l/m² 2,6 km/h (1 Bft) N-NW 336 ° 0 min 15 min 0,000 mm 0,0 UV-I 0 W/m² 9,5 °C 10,6 °C 6,4 km/h (2 Bft)
05.05.2026 22:45 10,6 °C 10,6 °C 10,6 °C 93 % 1008,6 hPa 0,2 l/m² 4,8 km/h (1 Bft) N-NW 336 ° 0 min 15 min 0,000 mm 0,0 UV-I 0 W/m² 9,5 °C 10,6 °C 9,7 km/h (2 Bft)
05.05.2026 22:30 10,6 °C 10,6 °C 10,7 °C 93 % 1008,6 hPa 0,2 l/m² 4,9 km/h (1 Bft) N-NW 336 ° 0 min 15 min 0,000 mm 0,0 UV-I 0 W/m² 9,5 °C 10,6 °C 12,9 km/h (3 Bft)
05.05.2026 22:15 10,7 °C 10,7 °C 10,8 °C 93 % 1008,5 hPa 0,2 l/m² 5,1 km/h (1 Bft) N-NW 336 ° 0 min 15 min 0,000 mm 0,0 UV-I 0 W/m² 9,6 °C 10,7 °C 14,5 km/h (3 Bft)
05.05.2026 22:00 10,8 °C 10,8 °C 10,8 °C 93 % 1008,4 hPa 0,0 l/m² 3,6 km/h (1 Bft) N-NW 336 ° 0 min 0 min 0,000 mm 0,0 UV-I 0 W/m² 9,7 °C 10,8 °C 8,0 km/h (2 Bft)
05.05.2026 21:45 10,8 °C 10,8 °C 10,8 °C 93 % 1008,4 hPa 0,2 l/m² 4,7 km/h (1 Bft) N-NW 336 ° 0 min 15 min 0,000 mm 0,0 UV-I 0 W/m² 9,7 °C 10,8 °C 14,5 km/h (3 Bft)
05.05.2026 21:30 10,8 °C 10,8 °C 10,9 °C 93 % 1008,4 hPa 0,2 l/m² 5,8 km/h (2 Bft) N-NW 337 ° 0 min 15 min 0,000 mm 0,0 UV-I 0 W/m² 9,7 °C 10,8 °C 12,9 km/h (3 Bft)
05.05.2026 21:15 10,9 °C 10,8 °C 11,1 °C 93 % 1008,3 hPa 0,4 l/m² 6,7 km/h (2 Bft) N-NW 338 ° 0 min 15 min 0,000 mm 0,0 UV-I 0 W/m² 9,8 °C 10,9 °C 14,5 km/h (3 Bft)
05.05.2026 21:00 11,1 °C 11,0 °C 11,1 °C 93 % 1008,3 hPa 0,2 l/m² 4,4 km/h (1 Bft) N-NW 338 ° 0 min 15 min 0,000 mm 0,0 UV-I 0 W/m² 10,0 °C 11,1 °C 9,7 km/h (2 Bft)
05.05.2026 20:45 11,1 °C 11,1 °C 11,2 °C 93 % 1008,4 hPa 0,2 l/m² 5,7 km/h (1 Bft) N-NW 338 ° 0 min 15 min 0,000 mm 0,0 UV-I 0 W/m² 10,0 °C 11,1 °C 12,9 km/h (3 Bft)
05.05.2026 20:30 11,2 °C 11,2 °C 11,2 °C 92 % 1008,3 hPa 0,4 l/m² 6,2 km/h (2 Bft) N-NW 340 ° 0 min 15 min 0,000 mm 0,0 UV-I 0 W/m² 9,9 °C 11,2 °C 16,1 km/h (3 Bft)
05.05.2026 20:15 11,2 °C 11,2 °C 11,4 °C 92 % 1008,3 hPa 0,2 l/m² 7,6 km/h (2 Bft) N-NW 342 ° 0 min 15 min 0,000 mm 0,0 UV-I 7 W/m² 9,9 °C 11,2 °C 16,1 km/h (3 Bft)
05.05.2026 20:00 11,4 °C 11,4 °C 11,6 °C 92 % 1008,4 hPa 0,4 l/m² 7,2 km/h (2 Bft) N-NW 348 ° 0 min 15 min 0,026 mm 0,0 UV-I 14 W/m² 10,1 °C 11,4 °C 17,7 km/h (3 Bft)
05.05.2026 19:45 11,6 °C 11,6 °C 11,7 °C 92 % 1008,3 hPa 0,2 l/m² 5,7 km/h (1 Bft) N 360 ° 0 min 15 min 0,000 mm 0,0 UV-I 16 W/m² 10,3 °C 11,6 °C 14,5 km/h (3 Bft)
05.05.2026 19:30 11,7 °C 11,6 °C 11,9 °C 92 % 1008,3 hPa 0,4 l/m² 6,5 km/h (2 Bft) N 5 ° 0 min 15 min 0,000 mm 0,0 UV-I 28 W/m² 10,4 °C 11,7 °C 14,5 km/h (3 Bft)
05.05.2026 19:15 11,9 °C 11,8 °C 12,1 °C 92 % 1008,4 hPa 0,2 l/m² 5,1 km/h (1 Bft) N 9 ° 0 min 15 min 0,000 mm 0,0 UV-I 18 W/m² 10,6 °C 11,9 °C 11,3 km/h (2 Bft)
05.05.2026 19:00 12,1 °C 12,1 °C 12,2 °C 91 % 1008,4 hPa 0,4 l/m² 3,7 km/h (1 Bft) N 10 ° 0 min 15 min 0,025 mm 0,0 UV-I 16 W/m² 10,7 °C 12,1 °C 11,3 km/h (2 Bft)
05.05.2026 18:45 12,2 °C 12,2 °C 12,3 °C 91 % 1008,5 hPa 0,6 l/m² 4,6 km/h (1 Bft) N 10 ° 0 min 15 min 0,000 mm 0,0 UV-I 23 W/m² 10,8 °C 12,2 °C 14,5 km/h (3 Bft)
05.05.2026 18:30 12,3 °C 12,3 °C 12,4 °C 90 % 1008,6 hPa 0,2 l/m² 3,7 km/h (1 Bft) N-NO 13 ° 0 min 15 min 0,000 mm 0,0 UV-I 26 W/m² 10,7 °C 12,3 °C 11,3 km/h (2 Bft)
05.05.2026 18:15 12,4 °C 12,4 °C 12,6 °C 90 % 1008,7 hPa 0,0 l/m² 5,2 km/h (1 Bft) N-NO 13 ° 0 min 0 min 0,000 mm 0,0 UV-I 28 W/m² 10,8 °C 12,4 °C 11,3 km/h (2 Bft)
05.05.2026 18:00 12,5 °C 12,4 °C 12,8 °C 89 % 1008,7 hPa 0,0 l/m² 6,3 km/h (2 Bft) N-NO 12 ° 0 min 0 min 0,026 mm 0,0 UV-I 35 W/m² 10,7 °C 12,5 °C 12,9 km/h (3 Bft)
05.05.2026 17:45 12,8 °C 12,8 °C 12,9 °C 89 % 1008,7 hPa 0,0 l/m² 5,3 km/h (1 Bft) N-NO 12 ° 0 min 0 min 0,000 mm 0,0 UV-I 49 W/m² 11,0 °C 12,8 °C 12,9 km/h (3 Bft)
05.05.2026 17:30 12,8 °C 12,8 °C 13,1 °C 89 % 1008,7 hPa 0,0 l/m² 7,4 km/h (2 Bft) N-NO 13 ° 0 min 0 min 0,000 mm 0,0 UV-I 54 W/m² 11,0 °C 12,8 °C 17,7 km/h (3 Bft)
05.05.2026 17:15 13,1 °C 13,0 °C 13,2 °C 89 % 1008,7 hPa 0,0 l/m² 7,3 km/h (2 Bft) N-NO 13 ° 0 min 0 min 0,000 mm 0,0 UV-I 58 W/m² 11,3 °C 13,1 °C 16,1 km/h (3 Bft)
05.05.2026 17:00 13,2 °C 13,2 °C 13,6 °C 88 % 1008,7 hPa 0,0 l/m² 7,1 km/h (2 Bft) N 9 ° 0 min 0 min 0,076 mm 0,0 UV-I 86 W/m² 11,3 °C 13,2 °C 16,1 km/h (3 Bft)
05.05.2026 16:45 13,6 °C 13,5 °C 13,6 °C 88 % 1008,7 hPa 0,0 l/m² 6,0 km/h (2 Bft) N 360 ° 0 min 0 min 0,000 mm 0,0 UV-I 84 W/m² 11,6 °C 13,6 °C 14,5 km/h (3 Bft)
05.05.2026 16:30 13,5 °C 13,5 °C 13,7 °C 88 % 1008,8 hPa 0,0 l/m² 7,0 km/h (2 Bft) N 5 ° 0 min 0 min 0,000 mm 0,6 UV-I 123 W/m² 11,6 °C 13,5 °C 16,1 km/h (3 Bft)
05.05.2026 16:15 13,7 °C 13,6 °C 13,8 °C 88 % 1008,9 hPa 0,0 l/m² 6,3 km/h (2 Bft) N 355 ° 0 min 0 min 0,000 mm 0,8 UV-I 155 W/m² 11,7 °C 13,7 °C 16,1 km/h (3 Bft)
05.05.2026 16:00 13,7 °C 13,7 °C 13,9 °C 88 % 1008,9 hPa 0,0 l/m² 8,0 km/h (2 Bft) N-NW 346 ° 0 min 0 min 0,127 mm 0,8 UV-I 169 W/m² 11,7 °C 13,7 °C 19,3 km/h (3 Bft)
05.05.2026 15:45 13,9 °C 13,9 °C 13,9 °C 88 % 1009,0 hPa 0,0 l/m² 7,9 km/h (2 Bft) N 350 ° 0 min 0 min 0,000 mm 0,8 UV-I 162 W/m² 11,9 °C 13,9 °C 16,1 km/h (3 Bft)
05.05.2026 15:30 13,9 °C 13,8 °C 14,0 °C 88 % 1009,1 hPa 0,0 l/m² 8,0 km/h (2 Bft) N 355 ° 0 min 0 min 0,000 mm 1,6 UV-I 297 W/m² 11,9 °C 13,9 °C 17,7 km/h (3 Bft)
05.05.2026 15:15 13,8 °C 13,8 °C 14,0 °C 89 % 1009,1 hPa 0,0 l/m² 9,7 km/h (2 Bft) N-NW 346 ° 0 min 0 min 0,000 mm 1,1 UV-I 220 W/m² 12,0 °C 13,8 °C 20,9 km/h (4 Bft)
05.05.2026 15:00 13,9 °C 13,9 °C 14,1 °C 89 % 1009,1 hPa 0,0 l/m² 8,1 km/h (2 Bft) N-NW 338 ° 0 min 0 min 0,101 mm 1,4 UV-I 244 W/m² 12,1 °C 13,9 °C 19,3 km/h (3 Bft)
05.05.2026 14:45 14,0 °C 14,0 °C 14,3 °C 89 % 1009,2 hPa 0,0 l/m² 9,3 km/h (2 Bft) N-NW 333 ° 0 min 0 min 0,000 mm 0,8 UV-I 137 W/m² 12,2 °C 14,0 °C 19,3 km/h (3 Bft)
05.05.2026 14:30 14,3 °C 14,3 °C 14,4 °C 89 % 1009,3 hPa 0,0 l/m² 8,2 km/h (2 Bft) N-NW 332 ° 0 min 0 min 0,000 mm 1,2 UV-I 190 W/m² 12,5 °C 14,3 °C 19,3 km/h (3 Bft)
05.05.2026 14:15 14,4 °C 14,4 °C 14,7 °C 89 % 1009,4 hPa 0,0 l/m² 7,6 km/h (2 Bft) NW 315 ° 0 min 0 min 0,000 mm 1,5 UV-I 243 W/m² 12,6 °C 14,4 °C 16,1 km/h (3 Bft)
05.05.2026 14:00 14,7 °C 14,7 °C 15,4 °C 88 % 1009,3 hPa 0,0 l/m² 7,1 km/h (2 Bft) W-NW 302 ° 0 min 0 min 0,102 mm 0,7 UV-I 128 W/m² 12,7 °C 14,7 °C 16,1 km/h (3 Bft)
05.05.2026 13:45 15,4 °C 15,4 °C 16,0 °C 84 % 1009,3 hPa 0,0 l/m² 4,8 km/h (1 Bft) W 271 ° 0 min 0 min 0,000 mm 0,0 UV-I 62 W/m² 12,7 °C 15,4 °C 12,9 km/h (3 Bft)
05.05.2026 13:30 16,0 °C 15,9 °C 16,1 °C 81 % 1009,4 hPa 0,0 l/m² 3,2 km/h (1 Bft) W 267 ° 0 min 0 min 0,000 mm 1,3 UV-I 200 W/m² 12,7 °C 16,0 °C 9,7 km/h (2 Bft)
05.05.2026 13:15 16,0 °C 15,7 °C 16,0 °C 81 % 1009,4 hPa 0,0 l/m² 2,2 km/h (1 Bft) W 266 ° 0 min 0 min 0,000 mm 1,9 UV-I 299 W/m² 12,7 °C 16,0 °C 9,7 km/h (2 Bft)
05.05.2026 13:00 15,8 °C 15,8 °C 15,9 °C 82 % 1009,5 hPa 0,0 l/m² 3,0 km/h (1 Bft) W 266 ° 0 min 0 min 0,178 mm 1,9 UV-I 304 W/m² 12,7 °C 15,8 °C 9,7 km/h (2 Bft)
05.05.2026 12:45 15,8 °C 15,5 °C 15,8 °C 82 % 1009,5 hPa 0,0 l/m² 2,8 km/h (1 Bft) W 266 ° 0 min 0 min 0,000 mm 1,7 UV-I 281 W/m² 12,7 °C 15,8 °C 9,7 km/h (2 Bft)
05.05.2026 12:30 15,7 °C 15,4 °C 15,7 °C 83 % 1009,6 hPa 0,0 l/m² 3,9 km/h (1 Bft) W 266 ° 0 min 0 min 0,000 mm 2,1 UV-I 348 W/m² 12,8 °C 15,7 °C 11,3 km/h (2 Bft)
05.05.2026 12:15 15,4 °C 15,2 °C 15,4 °C 83 % 1009,7 hPa 0,0 l/m² 2,8 km/h (1 Bft) W-SW 250 ° 0 min 0 min 0,000 mm 2,3 UV-I 396 W/m² 12,5 °C 15,4 °C 6,4 km/h (2 Bft)
05.05.2026 12:00 15,2 °C 14,8 °C 15,2 °C 85 % 1009,7 hPa 0,0 l/m² 2,8 km/h (1 Bft) W-SW 250 ° 0 min 0 min 0,152 mm 2,3 UV-I 417 W/m² 12,7 °C 15,2 °C 6,4 km/h (2 Bft)
_ Min-Zeit 07:15 07:15 07:15 13:15 08:00 - 01:45 - - - - - - - 07:15 11:00 01:45
Minimum _ 9,1 °C 9,1 °C 9,2 °C 81 % 1006,3 hPa - 1,0 km/h (0 Bft) - - - - - - - 8,2 °C 8,8 °C 4,8 km/h (1 Bft)
_ Max-Zeit 13:30 13:30 13:30 02:15 12:00 18:45 15:15 - - 12:00 18:30 13:00 12:00 12:00 12:30 13:15 15:15
Maximum _ 16,1 °C 15,9 °C 16,1 °C 94 % 1009,7 hPa 0,6 l/m² 9,7 km/h
N-NW (2 Bft)
- - 0 min 15 min 0,178 mm 2,3 UV-I 417 W/m² 12,8 °C 16,0 °C 20,9 km/h
N-NW (4 Bft)
Durchschnitt _ 11,6 °C 11,5 °C 11,7 °C 91 % 1008,0 hPa #11,2 l/m² 4,6 km/h (1 Bft) N-NW - #0 min. #5:45 h #0,102 mm 0,7 UV-I 48 W/m² 10,2 °C 11,5 °C 11,6 km/h (2 Bft)